Location: Quebec
(46.8000°N, 71.2500°W)
Time: 04:04:46
(UTC-05:00)

Vanguard 1 Rocket - Visible Passes

Search period start: 22 February 2018 00:00
Search period end: 04 March 2018 00:00
Orbit: 655 x 4222 km, 34.3° (Epoch: 20 February)

Date Brightness Start Highest point End Pass type
(mag) Time Alt. Az. Time Alt. Az. Time Alt. Az.
22 Feb 10.7 01:12:25 49° SE 01:12:25 49° SE 01:27:21 10° ESE visible
22 Feb 10.5 03:29:42 42° SW 03:35:03 46° SSW 03:53:09 10° SE visible
22 Feb 11.0 05:47:04 10° W 06:01:31 20° SW 06:12:45 10° SSW visible
22 Feb 11.0 18:46:43 10° SSE 18:54:44 15° ESE 18:56:15 15° ESE visible
22 Feb 10.6 21:03:39 10° SSW 21:47:54 - E 21:13:36 35° S visible
22 Feb 11.1 23:28:21 10° WSW 00:05:12 31° ESE 00:14:15 10° ESE visible
23 Feb 10.5 02:22:29 54° S 02:22:29 54° S 02:42:02 10° SE visible
23 Feb 10.8 04:39:46 24° WSW 04:49:44 31° SW 05:04:54 10° S visible
23 Feb 10.6 19:54:15 10° S 20:07:00 30° SE 20:07:00 30° SE visible
23 Feb 10.7 22:16:40 10° SW 22:58:03 14° E 23:00:17 10° E visible
24 Feb 10.7 01:15:20 46° SE 01:15:20 46° SE 01:29:54 10° ESE visible
24 Feb 10.6 03:32:38 40° SW 03:36:59 42° SW 03:55:14 10° SSE visible
24 Feb 11.2 05:51:37 10° W 06:03:04 16° WSW 06:12:38 10° SSW visible
24 Feb 10.8 18:46:42 10° SSE 18:56:20 19° SE 19:00:24 18° ESE visible
24 Feb 10.4 21:05:53 10° SW 21:50:59 - E 21:17:44 42° S visible
24 Feb 11.1 23:31:01 10° WSW 00:08:17 29° ESE 00:16:49 10° ESE visible
25 Feb 10.5 02:25:35 50° S 02:25:35 50° S 02:44:20 10° SE visible
25 Feb 10.9 04:42:54 22° WSW 04:51:23 27° SW 05:06:10 10° S visible
25 Feb 10.4 19:56:07 10° SSW 20:09:35 35° SE 20:11:05 35° SE visible
25 Feb 10.6 22:19:15 10° WSW 23:01:19 13° E 23:02:49 10° E visible
26 Feb 10.8 01:18:37 43° SE 01:18:37 43° SE 01:32:19 10° ESE visible
26 Feb 10.7 03:35:56 36° SW 03:38:48 37° SW 03:57:01 10° SSE visible
26 Feb 11.3 05:58:32 10° WSW 06:04:32 11° WSW 06:10:03 10° SW visible
26 Feb 10.6 18:47:43 10° S 18:58:03 23° SE 19:04:23 20° ESE visible
26 Feb 10.2 21:08:20 10° SW 21:21:42 48° S 21:21:42 48° S visible
26 Feb 11.0 23:33:47 10° WSW 00:11:45 26° ESE 00:19:16 10° ESE visible
27 Feb 10.6 02:29:03 45° S 02:29:03 45° S 02:46:24 10° SE visible
27 Feb 11.1 04:46:23 19° WSW 04:52:57 22° SW 05:06:46 10° S visible
27 Feb 10.8 17:42:57 10° SE 17:47:21 12° ESE 17:52:27 10° ESE visible
27 Feb 10.3 19:58:17 10° SSW 20:11:33 39° SE 20:14:57 37° SE visible
27 Feb 10.5 22:21:59 10° WSW 23:04:57 11° ESE 23:05:16 10° ESE visible
28 Feb 10.9 00:49:10 10° W 01:22:16 38° SSE 01:34:34 10° SE visible
28 Feb 10.8 03:39:36 32° SW 03:40:32 32° SW 03:58:26 10° SSE visible
28 Feb 10.4 18:49:20 10° S 18:59:54 27° SE 19:08:08 21° ESE visible
28 Feb 10.2 21:10:57 10° SW 21:25:27 52° SSE 21:25:27 52° SSE visible
28 Feb 10.9 23:36:37 10° WSW 00:15:33 23° ESE 00:21:37 10° ESE visible
01 Mar 10.8 02:32:53 39° S 02:32:53 39° S 02:48:12 10° SSE visible
01 Mar 11.2 04:50:14 16° WSW 04:54:29 17° SW 05:06:22 10° SSW visible
01 Mar 10.6 17:42:26 10° SSE 17:49:07 16° SE 17:57:50 10° E visible
01 Mar 10.2 20:00:42 10° SW 20:13:41 43° SSE 20:18:33 39° ESE visible
01 Mar 10.4 22:24:48 10° WSW 23:08:54 - ESE 22:35:51 47° SW visible
02 Mar 11.0 00:52:03 10° W 01:26:15 32° SSE 01:36:36 10° SE visible
02 Mar 11.0 03:43:35 27° SW 03:43:35 27° SW 03:59:19 10° S visible
02 Mar 10.2 18:51:22 10° SSW 19:01:55 32° SE 19:11:35 21° E visible
02 Mar 10.1 21:13:43 10° WSW 21:28:47 55° SSE 21:28:53 55° SSE visible
02 Mar 10.9 23:39:31 10° W 00:19:39 18° SE 00:23:48 10° ESE visible
03 Mar 11.0 02:36:59 32° S 02:36:59 32° S 02:49:40 10° SSE visible
03 Mar 11.3 04:54:20 12° WSW 04:55:59 12° WSW 05:03:46 10° SW visible
03 Mar 10.4 17:43:27 10° S 17:51:01 19° SE 18:01:46 10° E visible
03 Mar 10.0 20:03:19 10° SW 20:15:57 47° SSE 20:21:50 39° ESE visible
03 Mar 10.3 22:27:43 10° WSW 23:13:05 - ESE 22:39:08 49° SW visible
